Location: Fourc�s
(43.9926°N, 0.2311°E)
Time: 06:46:49
(UTC+00:00)

Daily predictions for brighter satellites

Satellite Brightness Start Highest point End
(mag) Time Altitude Azimuth Time Altitude Azimuth Time Altitude Azimuth
Cosmos 1809 Rocket 4.5 17:18:04 10° N 17:24:15 82° E 17:30:21 10° S
Cosmos 1908 3.9 17:21:22 10° SSW 17:25:10 59° W 17:28:59 10° N
H-2A R/B 3.7 17:23:35 10° E 17:26:35 15° ENE 17:29:35 10° NNE
CZ-4 R/B 2.8 17:26:19 10° ESE 17:28:46 16° ENE 17:31:13 10° NNE
Cosmos 2227 Rocket 3.0 17:23:54 10° N 17:28:51 30° NE 17:33:48 10° ESE
Cosmos 2266 Rocket 4.3 17:23:28 10° N 17:29:43 78° W 17:36:02 10° S
Cosmos 1892 4.2 17:28:50 10° NNE 17:31:29 17° ENE 17:34:07 10° ESE
Cosmos 1408 4.5 17:34:06 10° NE 17:35:35 12° ENE 17:37:05 10° E
NOAA 12 4.3 17:32:14 10° S 17:37:31 80° WSW 17:42:52 10° NNW
CZ-4C R/B 4.5 17:35:34 10° NNW 17:39:02 15° N 17:42:48 10° NE
Cosmos 1300 2.6 17:37:48 10° S 17:41:35 66° E 17:45:23 10° NNE
Cosmos 1953 Rocket 3.6 17:38:11 10° N 17:42:35 63° E 17:46:59 10° SSE
Cosmos 1697 Rocket 3.8 17:40:39 10° SSE 17:44:48 22° E 17:48:58 10° NE
Cosmos 2058 Rocket 3.4 17:40:38 10° SSE 17:44:53 44° E 17:49:11 10° NNE
Cosmos 1331 Rocket 4.1 17:40:11 10° SSW 17:45:21 79° WNW 17:50:32 10° NNE
SL-4 R/B 3.3 17:43:23 10° NW 17:46:19 24° N 17:49:04 12° NE
IRS-1C Rocket 4.2 17:42:15 10° SE 17:47:21 53° ENE 17:52:29 10° N
CZ-2D R/B 3.9 17:44:06 10° SE 17:47:31 32° ENE 17:50:57 10° N
SeaSat 1 4.1 17:46:28 12° ENE 17:48:38 16° NE 17:51:30 10° N
Cosmos 1346 Rocket 4.0 17:47:18 10° NNE 17:50:24 21° ENE 17:53:28 10° ESE
USA 305 4.1 17:46:55 10° NW 17:50:39 28° NNE 17:53:27 15° ENE
Cosmos 1825 4.2 17:50:48 10° NE 17:51:37 12° NE 17:51:37 12° NE
Cosmos 44 3.3 17:48:27 10° SW 17:52:55 76° NW 17:57:42 10° NNE
Cosmos 1315 Rocket 4.2 17:51:48 10° SE 17:54:33 18° E 17:56:19 14° ENE
NOAA 11 4.2 17:49:21 10° SSE 17:54:47 90° ENE 18:00:16 10° NNW
USA 215 4.4 17:51:39 11° ENE 17:56:51 29° N 18:02:19 10° NW
USA 306 4.0 17:53:19 10° NW 17:57:06 29° NNE 17:59:35 17° ENE
SAR-Lupe-4 3.5 17:56:47 10° NNE 18:00:23 85° ESE 18:03:57 10° SSW
ERS-2 3.1 17:56:55 10° N 18:00:27 49° WNW 18:03:58 10° SSW
BREEZE-M R/B 4.0 17:56:53 10° WNW 18:00:27 44° N 18:05:18 17° ENE
ATLAS 2AS CENTAUR R/B 4.2 17:55:22 10° NNW 18:01:10 22° NNE 18:05:17 14° ENE
Cosmos 968 Rocket 3.8 17:59:35 10° N 18:04:36 44° ENE 18:09:32 10° SE
Cosmos 1340 2.6 18:01:43 10° N 18:05:28 61° ENE 18:09:11 10° SSE
Cosmos 1980 Rocket 3.5 18:04:00 10° SE 18:07:19 17° ESE 18:07:19 17° ESE
Cosmos 2297 Rocket 2.1 18:03:21 10° NNW 18:09:01 70° ENE 18:14:40 10° SSE
COSMO-SKYMED 1 2.5 18:04:52 10° NNE 18:09:13 78° ESE 18:13:34 10° S
MOS 1 Rocket 4.2 18:05:51 10° NE 18:09:55 28° E 18:14:11 10° SSE
Aureole 3 Rocket 3.0 18:06:38 10° S 18:10:27 80° E 18:15:46 10° N
Cosmos 1076 Rocket 4.4 18:06:57 10° NNE 18:10:31 25° ENE 18:11:35 23° E
In-Cosmos 22 Rocket 4.0 18:06:20 10° N 18:11:42 69° ENE 18:17:09 10° SSE
S3M 4.2 18:08:37 10° SSE 18:14:23 46° E 18:20:14 10° NNE
Cosmos 1302 Rocket 4.1 18:11:04 10° SSW 18:16:19 81° WNW 18:21:39 10° NNE
Lacrosse 5 3.8 18:17:17 10° NW 18:20:48 18° N 18:23:30 13° NE
Okean O Rocket 4.1 18:17:38 10° SSW 18:21:12 24° W 18:24:47 10° NW
SL-08 ROCKET BODY 4.4 18:15:23 10° N 18:21:27 63° E 18:27:33 10° SSE
FALCON 9 DEB 4.0 18:19:00 10° W 18:22:05 40° NNW 18:23:30 25° NNE
YAOGAN 1 2.6 18:18:19 10° SSE 18:22:32 54° ENE 18:26:46 10° N
Aureole 3 3.3 18:21:06 10° SSW 18:24:15 55° W 18:27:11 10° N
Cosmos 1486 Rocket 3.9 18:19:50 10° NNW 18:25:11 70° ENE 18:30:28 10° SSE
Cosmos 1417 Rocket 4.4 18:19:12 10° S 18:25:23 71° E 18:31:42 10° NNE
FALCON 9 DEB 4.2 18:23:18 10° W 18:26:17 36° NNW 18:27:30 25° NNE
Milstar 3 4.3 18:22:27 10° SW 18:27:38 22° S 18:31:53 13° SE
Cosmos 1812 Rocket 4.0 18:25:16 10° SSE 18:29:19 37° E 18:30:36 30° NE
Cosmos 1455 2.3 18:26:28 10° SSE 18:30:05 46° E 18:31:13 34° NE
CZ-2C R/B 3.2 18:26:48 10° SSE 18:32:34 70° ENE 18:38:12 10° N
Cosmos 1503 Rocket 4.2 18:29:53 10° N 18:34:58 48° ENE 18:37:11 30° ESE
Cosmos 44 Rocket 4.0 18:31:35 10° S 18:35:27 32° ESE 18:35:27 32° ESE
Cosmos 2278 4.3 18:31:47 10° SSE 18:36:45 32° ESE 18:36:45 32° ESE
FALCON 9 DEB 4.3 18:35:27 10° W 18:38:25 32° NNW 18:39:10 28° N
CZ-4B R/B 4.4 18:36:48 10° NNW 18:38:50 16° WNW 18:40:51 10° WSW
Cosmos 2219 3.6 18:33:38 10° NNW 18:39:22 66° WSW 18:45:02 10° SSE
Cosmos 1939 Rocket 4.1 18:35:37 10° S 18:39:23 42° W 18:43:08 10° NNW
USA 307 3.3 18:36:14 10° NW 18:40:20 43° NNE 18:40:52 41° NE
DMSP B5D1-3 4.5 18:35:24 10° NNE 18:40:30 59° E 18:45:35 10° S
Meteor 2-10 Rocket 3.4 18:38:02 10° S 18:43:23 82° E 18:48:33 10° NNE
Cosmos 1553 Rocket 4.2 18:37:30 10° SSW 18:43:53 76° W 18:50:11 10° N
USA 308 3.2 18:41:03 10° NW 18:45:12 46° NNE 18:45:31 45° NE
Cosmos 1354 Rocket 4.1 18:41:23 10° NNW 18:46:32 53° ENE 18:47:53 42° ESE
Helios 1A Rocket 3.7 18:42:47 10° S 18:46:49 53° W 18:50:51 10° NNW
Cosmos 2082 3.6 18:42:23 10° NNW 18:48:07 66° ENE 18:50:45 32° SE
Meteor 2-15 Rocket 4.3 18:45:36 10° S 18:51:44 80° E 18:57:55 10° N
Okean-O 3.4 18:50:16 10° S 18:54:36 53° W 18:58:57 10° NNW
Cosmos 1992 Rocket 3.9 18:50:07 10° SSW 18:55:19 90° E 18:59:48 14° NNE
ARGOS 3.1 18:54:41 40° SE 18:56:29 60° ENE 19:01:50 10° N
OAO 2 Rocket 4.4 18:55:56 10° SW 19:00:10 28° S 19:00:33 28° SSE
Cosmos 2369 3.6 18:54:31 10° SSW 19:00:13 76° ESE 19:03:10 30° NNE
CZ-4 R/B 2.5 18:59:48 10° S 19:03:29 41° W 19:07:10 10° NNW
H-2A R/B 2.1 18:59:49 10° SSE 19:05:14 87° WSW 19:10:44 10° NNW
Ariane Rocket 4.4 19:07:51 24° NNE 19:07:51 24° NNE 19:10:10 10° N
GEOS 3 Rocket 3.5 19:05:41 56° ESE 19:06:49 78° NE 19:12:13 10° NW
Cosmos 2058 3.6 19:03:16 10° NNW 19:07:15 53° W 19:11:14 10° S
Cosmos 1892 4.4 19:03:44 10° NNW 19:07:17 34° W 19:10:49 10° SSW
Geosat 4.0 19:06:43 27° NNE 19:09:31 77° WNW 19:14:32 10° SW
Cosmos 1408 3.6 19:07:21 10° NNW 19:10:52 46° W 19:11:40 38° SW
Cosmos 1745 Rocket 4.4 19:04:56 10° NNW 19:11:09 65° W 19:17:25 10° S
Cosmos 2227 Rocket 3.2 19:07:43 10° NW 19:13:05 45° WSW 19:18:26 10° S
CSL-04 Rocket 3.8 19:09:00 10° S 19:14:32 74° WSW 19:20:05 10° NNW
Atlas Centaur 2 4.0 19:11:01 10° SW 19:18:12 31° S 19:20:08 28° SSE
Cosmos 2263 Rocket 3.4 19:13:50 10° N 19:17:16 29° NNE 19:17:16 29° NNE
Timation 1 Rocket 4.2 19:14:04 10° NNW 19:20:07 77° ENE 19:20:34 72° ESE
SeaSat 1 2.6 19:26:15 63° NNW 19:26:15 63° NNW 19:30:25 10° NNW
SL-4 R/B 3.9 19:23:02 10° NW 19:24:38 23° NW 19:24:38 23° NW
Cosmos 1697 Rocket 3.2 19:22:46 10° SW 19:28:17 58° WNW 19:31:25 26° N
Cosmos 1825 4.2 19:24:44 10° NNW 19:26:28 24° NNW 19:26:28 24° NNW
CZ-4C R/B 3.8 19:23:54 10° NNW 19:29:36 30° NNE 19:29:36 30° NNE
Cosmos 1315 Rocket 4.4 19:27:15 10° SW 19:30:50 33° WNW 19:32:10 26° NW
USA 305 4.1 19:26:48 10° NW 19:29:36 40° NW 19:29:36 40° NW
NOSS 3-4 (A) 3.9 19:24:44 10° NNW 19:31:36 56° NE 19:31:39 56° NE
NOSS 3-4 (C) 3.9 19:24:51 10° NNW 19:31:41 56° NE 19:31:43 56° NE
DEBRIS 4.2 19:18:27 10° WSW 19:35:51 72° NNW 19:36:50 61° NNE
USA 306 4.4 19:33:13 10° NW 19:35:44 35° WNW 19:35:44 35° WNW
USA 215 3.6 19:39:00 47° NNE 19:39:00 47° NNE 19:45:10 10° NW
NOSS 3-3 (A) 4.4 19:33:54 10° SW 19:39:38 56° NW 19:41:47 39° N
NOSS 3-3 (C) 4.4 19:33:59 10° SW 19:39:46 57° NW 19:41:53 39° N
Cosmos 1709 Rocket 4.3 19:34:37 10° NNW 19:40:57 68° W 19:44:30 28° SSW
Cosmos 1980 Rocket 3.0 19:45:19 10° SSW 19:49:11 44° SW 19:49:11 44° SW
ATLAS 2AS CENTAUR R/B 3.1 19:46:23 10° NNW 19:52:43 54° NNE 19:52:43 54° NNE
Lacrosse 5 4.0 20:00:52 10° NW 20:02:41 19° NNW 20:02:41 19° NNW
